Location: Moscow
(55.7500°N, 37.5830°E)
Time: 14:25:39
(UTC+03:00)

S-56A Canister/Altair - Pass Details

Date: 06 December 2021
Orbit: 633 x 2499 km, 38.9° (Epoch: 17 January)

Event Time Altitude Azimuth Distance (km) Brightness Sun altitude
Rises 22:33:58 0° 205° (SSW) 5,570 - -51.4°
Reaches altitude 10° 22:40:01 10° 186° (S) 4,179 - -52.0°
Maximum altitude 22:45:14 15° 157° (SSE) 3,400 - -52.4°
Drops below altitude 10° 22:49:40 10° 126° (SE) 3,414 - -52.8°
Sets 22:53:43 0° 104° (ESE) 4,031 - -53.1°
